Powrót do katalogu

STARLINK-2253

AktywnyŁącznośćVLEO
NORAD 48596·PAYLOAD·🇺🇸 United States

Wystrzelony May 15, 2021 z Cape Canaveral Space Force Station

Loading…

Następne Przeloty (najbliższe 24 godziny)

TLE

ŚwieżeSource: CelesTrak SupGP

Epoka: Sep 14, 2026, 21:52 UTC

1 48596C 21041AV  26257.91159722 -.00025307  00000+0 -81377-3 0  2572
2 48596  53.1605 338.9532 0001105  88.4111 318.7640 15.31716823    14

Śledź STARLINK-2253 w czasie rzeczywistym z AllMySat

Download on the App Store